User: anonymous   Login
Location: Newark
(61.5000°N, 23.7667°E)
Time: 17:44:50
(UTC+00:00)
Language:

STRAND 1 - Orbit

View from above orbital plane
View from above orbital plane
View from above satellite
View from above satellite

Ground track
Ground track

The orbit data is extracted from the following two-line orbital elements,

1 39090U 13009E   19316.75988468  .00000022  00000-0  22924-4 0  9996
2 39090  98.4726 160.1568 0008550 206.0999 153.9756 14.35104723351486
Epoch (UTC): 12 November 2019 18:14:14
Eccentricity: 0.0008550
inclination: 98.4726°
perigee height: 768 km
apogee height: 781 km
right ascension of ascending node: 160.1568°
argument of perigee: 206.0999°
revolutions per day: 14.35104723
mean anomaly at epoch: 153.9756°
orbit number at epoch: 35148

The dashed part of the orbit path shows where the satellite is in the earth's shadow,  

DLR